| time (UTC) | temp F | wind direction | speed knots | gust knots | rain 1hr in | rain 24hr in | rain mn in | humidity % | barometer mb |
| 20260509201818 | 61 | 340 | 0.0 | 0.0 | 0.00 | 0.00 | 0.00 | 54 | 1019.3 |
| 20260509200318 | 61 | 328 | 0.0 | 0.0 | 0.00 | 0.00 | 0.00 | 55 | 1019.1 |
| 20260509194818 | 61 | 325 | 0.0 | 0.0 | 0.00 | 0.00 | 0.00 | 53 | 1018.9 |
| 20260509193317 | 61 | 317 | 0.0 | 0.0 | 0.00 | 0.00 | 0.00 | 53 | 1018.5 |
| 20260509191818 | 61 | 321 | 1.7 | 2.6 | 0.00 | 0.00 | 0.00 | 54 | 1018.3 |
| 20260509190317 | 61 | 336 | 0.0 | 0.0 | 0.00 | 0.00 | 0.00 | 55 | 1018.2 |
| 20260509184818 | 61 | 337 | 0.0 | 0.9 | 0.00 | 0.00 | 0.00 | 52 | 1018.1 |
| 20260509183319 | 61 | 26 | 0.0 | 0.9 | 0.00 | 0.00 | 0.00 | 51 | 1017.9 |
| 20260509181817 | 61 | 329 | 0.0 | 0.9 | 0.00 | 0.00 | 0.00 | 53 | 1017.7 |
| 20260509180318 | 61 | 348 | 0.0 | 0.0 | 0.00 | 0.00 | 0.00 | 53 | 1017.6 |
| 20260509174819 | 61 | 26 | 0.0 | 0.0 | 0.00 | 0.00 | 0.00 | 50 | 1017.5 |
| 20260509173317 | 62 | 26 | 0.0 | 0.0 | 0.00 | 0.00 | 0.00 | 50 | 1017.5 |
| 20260509171818 | 62 | 31 | 0.0 | 0.0 | 0.00 | 0.00 | 0.00 | 50 | 1017.4 |
| 20260509170317 | 62 | 346 | 0.9 | 0.9 | 0.00 | 0.00 | 0.00 | 50 | 1017.2 |
| 20260509164818 | 62 | 3 | 0.9 | 1.7 | 0.00 | 0.00 | 0.00 | 49 | 1017.2 |
| 20260509163318 | 63 | 15 | 1.7 | 2.6 | 0.00 | 0.00 | 0.00 | 49 | 1017.3 |
| 20260509161818 | 63 | 10 | 2.6 | 7.8 | 0.00 | 0.00 | 0.00 | 48 | 1017.3 |
| 20260509160317 | 63 | 348 | 1.7 | 4.3 | 0.00 | 0.00 | 0.00 | 48 | 1017.1 |
| 20260509154818 | 63 | 355 | 1.7 | 2.6 | 0.00 | 0.00 | 0.00 | 47 | 1017.0 |
| 20260509153319 | 64 | 13 | 4.3 | 6.1 | 0.00 | 0.00 | 0.00 | 46 | 1017.0 |
| 20260509151817 | 64 | 14 | 2.6 | 6.1 | 0.00 | 0.00 | 0.00 | 45 | 1017.1 |
| 20260509150318 | 64 | 41 | 1.7 | 1.7 | 0.00 | 0.00 | 0.00 | 44 | 1017.2 |
| 20260509144819 | 64 | 321 | 1.7 | 2.6 | 0.00 | 0.00 | 0.00 | 44 | 1017.0 |
| 20260509143317 | 65 | 23 | 2.6 | 2.6 | 0.00 | 0.00 | 0.00 | 43 | 1017.0 |
| 20260509141818 | 65 | 355 | 0.9 | 0.9 | 0.00 | 0.00 | 0.00 | 42 | 1016.7 |
| 20260509140319 | 66 | 6 | 2.6 | 4.3 | 0.00 | 0.00 | 0.00 | 41 | 1016.5 |
| 20260509134819 | 66 | 2 | 1.7 | 5.2 | 0.00 | 0.00 | 0.00 | 40 | 1016.3 |
| 20260509133317 | 66 | 9 | 0.9 | 4.3 | 0.00 | 0.00 | 0.00 | 38 | 1016.2 |
| 20260509131818 | 66 | 47 | 0.0 | 0.0 | 0.00 | 0.00 | 0.00 | 41 | 1016.1 |
| 20260509130319 | 66 | 318 | 0.9 | 1.7 | 0.00 | 0.00 | 0.00 | 40 | 1016.0 |
| 20260509124817 | 66 | 338 | 0.0 | 1.7 | 0.00 | 0.00 | 0.00 | 40 | 1015.9 |
| 20260509123318 | 65 | 298 | 0.0 | 0.0 | 0.00 | 0.00 | 0.00 | 44 | 1015.8 |
| 20260509121818 | 65 | 296 | 0.0 | 0.0 | 0.00 | 0.00 | 0.00 | 46 | 1015.9 |
| 20260509120318 | 65 | 295 | 0.0 | 0.0 | 0.00 | 0.00 | 0.00 | 43 | 1015.7 |
| 20260509114817 | 66 | 295 | 0.0 | 0.0 | 0.00 | 0.00 | 0.00 | 45 | 1015.6 |
| 20260509113317 | 66 | 295 | 0.0 | 0.0 | 0.00 | 0.00 | 0.00 | 42 | 1015.4 |
| 20260509111818 | 67 | 295 | 0.0 | 0.0 | 0.00 | 0.00 | 0.00 | 41 | 1015.2 |
| 20260509110318 | 67 | 296 | 0.0 | 0.0 | 0.00 | 0.00 | 0.00 | 40 | 1015.0 |
| 20260509104817 | 68 | 250 | 0.0 | 0.0 | 0.00 | 0.00 | 0.00 | 42 | 1014.9 |
| 20260509103317 | 69 | 282 | 0.0 | 0.0 | 0.00 | 0.00 | 0.00 | 39 | 1014.5 |
| 20260509101818 | 69 | 306 | 0.0 | 0.9 | 0.00 | 0.00 | 0.00 | 37 | 1014.2 |
| 20260509100319 | 70 | 293 | 0.9 | 2.6 | 0.00 | 0.00 | 0.00 | 37 | 1013.9 |
| 20260509094817 | 71 | 338 | 1.7 | 6.1 | 0.00 | 0.00 | 0.00 | 35 | 1013.7 |
| 20260509093318 | 71 | 14 | 2.6 | 4.3 | 0.00 | 0.00 | 0.00 | 34 | 1013.5 |
| 20260509091818 | 72 | 3 | 2.6 | 6.1 | 0.00 | 0.00 | 0.00 | 35 | 1013.2 |
| 20260509090317 | 72 | 20 | 1.7 | 4.3 | 0.00 | 0.00 | 0.00 | 34 | 1012.9 |
| 20260509084817 | 73 | 0 | 0.9 | 4.3 | 0.00 | 0.00 | 0.00 | 34 | 1012.7 |
| 20260509083318 | 73 | 4 | 7.8 | 10.4 | 0.00 | 0.00 | 0.00 | 33 | 1012.2 |
| 20260509081818 | 74 | 3 | 7.0 | 8.7 | 0.00 | 0.00 | 0.00 | 34 | 1012.1 |
| 20260509080317 | 74 | 19 | 7.0 | 12.2 | 0.00 | 0.00 | 0.00 | 34 | 1012.0 |
| 20260509074817 | 74 | 9 | 6.1 | 10.4 | 0.00 | 0.00 | 0.00 | 35 | 1011.8 |
| 20260509073318 | 75 | 4 | 4.3 | 7.0 | 0.00 | 0.00 | 0.00 | 35 | 1011.4 |
| 20260509071819 | 75 | 356 | 1.7 | 2.6 | 0.00 | 0.00 | 0.00 | 36 | 1011.1 |
| 20260509070317 | 75 | 4 | 4.3 | 6.1 | 0.00 | 0.00 | 0.00 | 36 | 1010.9 |
| 20260509064818 | 75 | 16 | 8.7 | 18.2 | 0.00 | 0.00 | 0.00 | 35 | 1010.4 |
| 20260509063318 | 75 | 349 | 2.6 | 6.1 | 0.00 | 0.00 | 0.00 | 37 | 1010.4 |
| 20260509061817 | 74 | 345 | 6.1 | 10.4 | 0.00 | 0.00 | 0.00 | 37 | 1010.5 |
| 20260509060318 | 74 | 354 | 5.2 | 10.4 | 0.00 | 0.00 | 0.00 | 38 | 1010.4 |
| 20260509054818 | 75 | 347 | 6.1 | 7.8 | 0.00 | 0.00 | 0.00 | 38 | 1010.3 |
| 20260509053318 | 74 | 11 | 7.0 | 11.3 | 0.00 | 0.00 | 0.00 | 39 | 1010.1 |
| 20260509051817 | 74 | 16 | 6.1 | 7.8 | 0.00 | 0.00 | 0.00 | 40 | 1010.2 |
| 20260509050318 | 75 | 10 | 7.0 | 10.4 | 0.00 | 0.00 | 0.00 | 39 | 1010.0 |
| 20260509044818 | 74 | 356 | 7.0 | 12.2 | 0.00 | 0.00 | 0.00 | 40 | 1009.9 |
| 20260509043317 | 73 | 29 | 10.4 | 15.6 | 0.00 | 0.00 | 0.00 | 40 | 1009.9 |
| 20260509041818 | 74 | 27 | 4.3 | 10.4 | 0.00 | 0.00 | 0.00 | 41 | 1010.0 |
| 20260509040317 | 74 | 7 | 6.1 | 8.7 | 0.00 | 0.00 | 0.00 | 42 | 1010.3 |
| 20260509034818 | 73 | 340 | 6.1 | 10.4 | 0.00 | 0.00 | 0.00 | 43 | 1010.3 |
| 20260509033318 | 74 | 21 | 7.0 | 12.2 | 0.00 | 0.00 | 0.00 | 43 | 1010.4 |
| 20260509031819 | 73 | 3 | 7.8 | 13.9 | 0.00 | 0.00 | 0.00 | 43 | 1010.5 |
| 20260509030317 | 73 | 10 | 4.3 | 10.4 | 0.00 | 0.00 | 0.00 | 43 | 1010.4 |
| 20260509024818 | 72 | 29 | 8.7 | 13.0 | 0.00 | 0.00 | 0.00 | 44 | 1010.3 |
| 20260509023318 | 73 | 10 | 7.0 | 11.3 | 0.00 | 0.00 | 0.00 | 42 | 1010.5 |
| 20260509021818 | 72 | 283 | 2.6 | 6.1 | 0.00 | 0.00 | 0.00 | 45 | 1010.2 |
| 20260509020317 | 72 | 16 | 6.1 | 12.2 | 0.00 | 0.00 | 0.00 | 43 | 1010.2 |
| 20260509014817 | 72 | 23 | 7.0 | 13.0 | 0.00 | 0.00 | 0.00 | 43 | 1010.3 |
| 20260509013318 | 71 | 335 | 7.8 | 15.6 | 0.00 | 0.00 | 0.00 | 44 | 1010.3 |
| 20260509011817 | 72 | 281 | 2.6 | 7.8 | 0.00 | 0.00 | 0.00 | 45 | 1010.2 |
| 20260509010318 | 72 | 307 | 2.6 | 7.0 | 0.00 | 0.00 | 0.00 | 44 | 1010.1 |
| 20260509004818 | 70 | 233 | 1.7 | 6.1 | 0.00 | 0.00 | 0.00 | 45 | 1009.9 |
| 20260509003319 | 70 | 267 | 1.7 | 5.2 | 0.00 | 0.00 | 0.00 | 43 | 1009.7 |
| 20260509001818 | 71 | 284 | 1.7 | 5.2 | 0.00 | 0.00 | 0.00 | 43 | 1009.7 |
| 20260509000318 | 71 | 320 | 1.7 | 2.6 | 0.00 | 0.00 | 0.00 | 41 | 1009.3 |
| 20260508234819 | 71 | 278 | 1.7 | 1.7 | 0.00 | 0.00 | 0.00 | 41 | 1009.1 |
| 20260508233317 | 70 | 347 | 1.7 | 2.6 | 0.00 | 0.00 | 0.00 | 38 | 1009.0 |
| 20260508231818 | 70 | 292 | 1.7 | 6.1 | 0.00 | 0.00 | 0.00 | 40 | 1008.8 |
| 20260508230318 | 69 | 332 | 0.9 | 1.7 | 0.00 | 0.00 | 0.00 | 40 | 1008.4 |
| 20260508224817 | 68 | 301 | 1.7 | 4.3 | 0.00 | 0.00 | 0.00 | 43 | 1008.2 |
| 20260508223318 | 68 | 341 | 1.7 | 1.7 | 0.00 | 0.00 | 0.00 | 45 | 1008.0 |
| 20260508221818 | 66 | 347 | 0.9 | 4.3 | 0.00 | 0.00 | 0.00 | 44 | 1007.7 |
| 20260508220318 | 65 | 292 | 0.9 | 1.7 | 0.00 | 0.00 | 0.00 | 46 | 1007.5 |
| 20260508214817 | 64 | 23 | 0.0 | 1.7 | 0.00 | 0.00 | 0.00 | 47 | 1007.4 |
| 20260508213317 | 64 | 24 | 0.9 | 2.6 | 0.00 | 0.00 | 0.00 | 45 | 1007.2 |
| 20260508211818 | 64 | 348 | 0.9 | 1.7 | 0.00 | 0.00 | 0.00 | 46 | 1006.9 |
| 20260508210318 | 64 | 340 | 0.9 | 0.9 | 0.00 | 0.00 | 0.00 | 45 | 1006.6 |
| 20260508204819 | 64 | 340 | 0.0 | 0.0 | 0.00 | 0.00 | 0.00 | 46 | 1006.2 |
| 20260508203317 | 64 | 343 | 0.9 | 2.6 | 0.00 | 0.00 | 0.00 | 43 | 1005.9 |